User: anonymous
Location: Irma
(52.9170°N, 111.2330°W)
Time: 18:10:17
(UTC-06:00)
Language:

Meteor 1-24 Rocket - Orbit

View from above orbital plane
View from above orbital plane
View from above satellite
View from above satellite

Ground track
Ground track

The orbit data is extracted from the following two-line orbital elements,

1 08800U 76032B   14263.76632087  .00000149  00000-0  73838-4 0  1213
2 08800 081.2493 110.4944 0096600 137.0076 274.2517 14.09970149977200
Epoch (UTC): 20 September 2014 18:23:30
Eccentricity: 0.0096600
inclination: 81.2493°
perigee height: 789 km
apogee height: 929 km
right ascension of ascending node: 110.4944°
argument of perigee: 137.0076°
revolutions per day: 14.09970149
mean anomaly at epoch: 274.2517°
orbit number at epoch: 97720

The dashed part of the orbit path shows where the satellite is in the earth's shadow,  

DLR